Ambridge, PA (15003)

11:13 AM EST on February 10, 2016 (GMT -0500)
Ambridge Historic District | | Change Station
CLOSE
Current Station
Personal Weather Station
Location: Ambridge, PA
Elevation: 751 ft
Nearby Weather Stations
Active Advisory: Winter Weather Advisory

Elev 751 ft 40.60 °N, 80.23 °W | Updated 2 seconds ago

Snow
Snow
20.5 °F
Feels Like 20 °F
N
2.0
Wind Variable Wind from SW
Gusts 4.0 mph

Today
High -- | Low -- °F
--% Chance of Precip.
Yesterday
High -- | Low -- °F
Precip. -- in
Pressure 29.87 in
Visibility 3.0 miles
Clouds Few 2200 ft
Mostly Cloudy 2900 ft
Overcast 3800 ft
Windchill 20 °F
Dew Point 13 °F
Humidity 73%
Rainfall 0.00 in
Snow Depth Not available.
7:21 AM 5:49 PM
Waxing Crescent, 6% visible
METAR KPIT 101551Z 24012G21KT 3SM -SN FEW022 BKN029 OVC038 M08/M12 A2980 RMK AO2 SLP115 P0000 T10781122
Pressure 29.87 in
Visibility 3.0 miles
Clouds Few 2200 ft
Mostly Cloudy 2900 ft
Overcast 3800 ft
Windchill 20 °F
Dew Point 13 °F
Humidity 73%
Rainfall 0.00 in
Snow Depth Not available.
7:21 AM 5:49 PM
Waxing Crescent, 6% visible
METAR KPIT 101551Z 24012G21KT 3SM -SN FEW022 BKN029 OVC038 M08/M12 A2980 RMK AO2 SLP115 P0000 T10781122

10-Day Weather Forecast

Almanac

Astronomy

Feb. 10, 2016 Rise Set
Actual Time
Civil Twilight
Nautical Twilight
Astronomical Twilight
Moon
Length of Visible Light
Length of Day
Tomorrow will be .
, % of the Moon is Illuminated

Today's Extremes

State Highs State Lows

Community

WunderPhotos

Upload Photos

1,891,864 photos uploaded!

WunderBlog® & News

Nearby

Air Quality

  Air Quality AQ Index Pollutant
Not available.

Snow Depth

Station Depth Elevation

Earthquake Activity

City Distance Mag. Time & Date
Minimum magnitude displayed is 2.5.

Coastal Water Temperatures

Place Temperature

Stations

Nearby Weather Stations

Station Location Temp. Windchill Dew Point Humidity Wind Precip. Elev Updated Type
                   

Watches & Warnings

Winter Weather Advisory
Issued: 9:33 AM EST Feb. 10, 2016 – National Weather Service

... Winter Weather Advisory remains in effect until 7 am EST
Thursday...

* snow accumulation... 3 to 5 inches.

* Period of most intense snow... in snow squalls this afternoon
and evening.

* Snow ending... snow showers will gradually diminish late
tonight.

* Impacts... hazardous travel conditions are expected due to snow.

Precautionary/preparedness actions...

A Winter Weather Advisory for snow means that periods of snow
will cause primarily travel difficulties. Be prepared for snow
covered roads and limited visibilities... and use caution while
driving.